DW4393 Weather Reports


Display with metric or nautical units.
time (UTC)temp
F
wind
direction
speed
MPH
gust
MPH
rain 1hr
in
rain 24hr
in
rain mn
in
humidity
%
barometer
mb
20260902224805 91 24 0.0 0.0 0.00 0.00 0.00 55 1015.4
20260902224305 91 24 0.0 0.0 0.00 0.00 0.00 54 1015.5
20260902223805 92 24 0.0 0.0 0.00 0.00 0.00 55 1015.5
20260902223305 92 24 0.0 0.0 0.00 0.00 0.00 52 1015.5
20260902221805 93 24 0.0 0.0 0.00 0.00 0.00 49 1015.4
20260902221304 93 24 0.0 0.0 0.00 0.00 0.00 49 1015.4
20260902220804 93 144 0.0 0.0 0.00 0.00 0.00 51 1015.4
20260902220305 94 175 0.0 0.0 0.00 0.00 0.00 48 1015.5
20260902214804 94 92 0.0 0.0 0.00 0.00 0.00 46 1015.5
20260902214305 94 156 0.0 0.0 0.00 0.00 0.00 46 1015.5
20260902213805 94 194 0.0 0.0 0.00 0.00 0.00 47 1015.5
20260902213304 94 119 0.0 0.0 0.00 0.00 0.00 49 1015.6
20260902211805 95 119 0.0 0.0 0.00 0.00 0.00 46 1015.6
20260902210804 95 321 0.0 0.0 0.00 0.00 0.00 46 1015.5
20260902204804 95 269 0.0 0.0 0.00 0.00 0.00 50 1015.6
20260902204305 96 269 0.0 0.0 0.00 0.00 0.00 46 1015.7
20260902203805 96 268 0.0 0.0 0.00 0.00 0.00 44 1015.7
20260902201804 98 98 0.0 0.0 0.00 0.00 0.00 42 1015.8
20260902200805 98 126 0.0 0.0 0.00 0.00 0.00 43 1015.9
20260902200304 97 134 0.0 0.0 0.00 0.00 0.00 44 1015.9
20260902194805 95 142 0.0 0.0 0.00 0.00 0.00 45 1016.3
20260902194305 94 211 0.0 0.0 0.00 0.00 0.00 50 1016.3
20260902193805 93 194 0.0 0.0 0.00 0.00 0.00 52 1016.3
20260902191804 95 303 0.0 0.0 0.00 0.00 0.00 48 1016.5
20260902190804 95 251 0.0 0.0 0.00 0.00 0.00 51 1016.6
20260902190305 93 255 0.0 0.0 0.00 0.00 0.00 53 1016.7
20260902184304 91 248 0.0 0.0 0.00 0.00 0.00 53 1017.0
20260902183805 92 248 0.0 0.0 0.00 0.00 0.00 54 1017.0
20260902183304 92 248 0.0 0.0 0.00 0.00 0.00 56 1017.1
20260902181805 90 248 0.0 0.0 0.00 0.00 0.00 58 1017.3
20260902180305 91 248 0.0 0.0 0.00 0.00 0.00 58 1017.3
20260902174805 91 248 0.0 0.0 0.00 0.00 0.00 58 1017.4
20260902174304 91 248 0.0 0.0 0.00 0.00 0.00 58 1017.5
20260902173805 91 248 0.0 0.0 0.00 0.00 0.00 54 1017.5
20260902173304 92 248 0.0 0.0 0.00 0.00 0.00 52 1017.5
20260902171805 93 236 0.0 0.0 0.00 0.00 0.00 54 1017.8
20260902171305 92 63 0.0 0.0 0.00 0.00 0.00 55 1017.9
20260902170805 92 219 0.0 0.0 0.00 0.00 0.00 54 1018.0
20260902170305 93 220 0.0 0.0 0.00 0.00 0.00 53 1018.0
20260902164805 93 276 0.0 0.0 0.00 0.00 0.00 51 1018.1
20260902164305 93 262 0.0 0.0 0.00 0.00 0.00 51 1018.3
20260902163305 92 245 0.0 0.0 0.00 0.00 0.00 54 1018.3
20260902161805 91 329 0.0 0.0 0.00 0.00 0.00 56 1018.4
20260902161305 91 313 0.0 0.0 0.00 0.00 0.00 55 1018.4
20260902160804 91 279 0.0 0.0 0.00 0.00 0.00 58 1018.4
20260902154805 89 178 0.0 0.0 0.00 0.00 0.00 62 1018.6
20260902154305 89 171 0.0 0.0 0.00 0.00 0.00 63 1018.6
20260902153805 89 171 0.0 0.0 0.00 0.00 0.00 65 1018.7
20260902153305 88 186 0.0 0.0 0.00 0.00 0.00 64 1018.6
20260902151805 87 187 0.0 0.0 0.00 0.00 0.00 66 1018.9
20260902151304 86 229 0.0 0.0 0.00 0.00 0.00 68 1018.9
20260902150805 86 228 0.0 0.0 0.00 0.00 0.00 69 1018.8
20260902150305 86 228 0.0 0.0 0.00 0.00 0.00 69 1018.9
20260902144805 84 228 0.0 0.0 0.00 0.00 0.00 73 1018.8
20260902144305 84 228 0.0 0.0 0.00 0.00 0.00 75 1018.7
20260902143806 83 309 0.0 0.0 0.00 0.00 0.00 77 1018.8
20260902143305 83 309 0.0 0.0 0.00 0.00 0.00 79 1018.7
20260902141805 81 309 0.0 0.0 0.00 0.00 0.00 81 1018.8
20260902141305 81 309 0.0 0.0 0.00 0.00 0.00 81 1018.9
20260902140805 80 309 0.0 0.0 0.00 0.00 0.00 82 1018.9
20260902140305 80 309 0.0 0.0 0.00 0.00 0.00 84 1018.9
20260902134805 78 309 0.0 0.0 0.00 0.00 0.00 88 1018.8
20260902134305 77 309 0.0 0.0 0.00 0.00 0.00 89 1018.8
20260902133805 77 309 0.0 0.0 0.00 0.00 0.00 90 1018.8
20260902133305 76 309 0.0 0.0 0.00 0.00 0.00 91 1018.7
20260902131805 75 309 0.0 0.0 0.00 0.00 0.00 91 1018.7
20260902131305 74 309 0.0 0.0 0.00 0.00 0.00 92 1018.8
20260902130305 73 309 0.0 0.0 0.00 0.00 0.00 94 1018.9
20260902124309 71 309 0.0 0.0 0.00 0.00 0.00 94 1019.0
20260902123303 71 309 0.0 0.0 0.00 0.00 0.00 95 1018.9
20260902121803 70 309 0.0 0.0 0.00 0.00 0.00 95 1018.7
20260902121303 70 309 0.0 0.0 0.00 0.00 0.00 95 1018.7
20260902120803 70 309 0.0 0.0 0.00 0.00 0.00 95 1018.7
20260902120303 70 309 0.0 0.0 0.00 0.00 0.00 95 1018.7
20260902114803 69 309 0.0 0.0 0.00 0.00 0.00 95 1018.6
20260902114303 69 309 0.0 0.0 0.00 0.00 0.00 95 1018.6
20260902113804 69 309 0.0 0.0 0.00 0.00 0.00 94 1018.5
20260902113303 69 309 0.0 0.0 0.00 0.00 0.00 94 1018.3
20260902111803 69 309 0.0 0.0 0.00 0.00 0.00 95 1018.3
20260902111303 69 309 0.0 0.0 0.00 0.00 0.00 95 1018.3
20260902110803 69 309 0.0 0.0 0.00 0.00 0.00 95 1018.3
20260902110303 69 309 0.0 0.0 0.00 0.00 0.00 95 1018.1
20260902104803 70 309 0.0 0.0 0.00 0.00 0.00 95 1018.0
20260902103303 70 309 0.0 0.0 0.00 0.00 0.00 94 1018.0
20260902101804 70 309 0.0 0.0 0.00 0.00 0.00 94 1018.0
20260902101303 70 309 0.0 0.0 0.00 0.00 0.00 94 1018.0
20260902100803 70 309 0.0 0.0 0.00 0.00 0.00 94 1017.7
20260902100304 70 309 0.0 0.0 0.00 0.00 0.00 94 1017.7
20260902094803 70 309 0.0 0.0 0.00 0.00 0.00 94 1017.6
20260902094303 70 309 0.0 0.0 0.00 0.00 0.00 94 1017.5
20260902093803 70 309 0.0 0.0 0.00 0.00 0.00 94 1017.6
20260902091803 70 309 0.0 0.0 0.00 0.00 0.00 94 1017.5
20260902091303 70 309 0.0 0.0 0.00 0.00 0.00 94 1017.4
20260902090803 71 309 0.0 0.0 0.00 0.00 0.00 94 1017.4
20260902090303 71 309 0.0 0.0 0.00 0.00 0.00 94 1017.3
20260902084802 71 309 0.0 0.0 0.00 0.00 0.00 94 1017.1
20260902083803 71 309 0.0 0.0 0.00 0.00 0.00 94 1017.2
20260902083303 71 309 0.0 0.0 0.00 0.00 0.00 94 1017.1
20260902081803 71 309 0.0 0.0 0.00 0.00 0.00 94 1017.1
20260902080803 71 309 0.0 0.0 0.00 0.00 0.00 94 1017.1
20260902074803 71 309 0.0 0.0 0.00 0.00 0.00 93 1017.0
20260902074303 71 309 0.0 0.0 0.00 0.00 0.00 93 1017.1
20260902073803 71 309 0.0 0.0 0.00 0.00 0.00 93 1017.1
20260902073303 71 309 0.0 0.0 0.00 0.00 0.00 93 1017.1
20260902071803 72 309 0.0 0.0 0.00 0.00 0.00 93 1017.2
20260902071304 72 309 0.0 0.0 0.00 0.00 0.00 93 1017.2
20260902070803 72 309 0.0 0.0 0.00 0.00 0.00 93 1017.2
20260902070304 72 309 0.0 0.0 0.00 0.00 0.00 93 1017.2
20260902064803 72 309 0.0 0.0 0.00 0.00 0.00 93 1017.2
20260902064303 72 309 0.0 0.0 0.00 0.00 0.00 93 1017.2
20260902063804 72 309 0.0 0.0 0.00 0.00 0.00 93 1017.2
20260902063304 72 309 0.0 0.0 0.00 0.00 0.00 93 1017.1
20260902061803 72 309 0.0 0.0 0.00 0.00 0.00 93 1017.2
20260902060804 73 309 0.0 0.0 0.00 0.00 0.00 93 1017.2
20260902060303 73 309 0.0 0.0 0.00 0.00 0.00 92 1017.4
20260902053804 73 309 0.0 0.0 0.00 0.00 0.00 92 1017.4
20260902053304 73 309 0.0 0.0 0.00 0.00 0.00 92 1017.3
20260902051803 73 309 0.0 0.0 0.00 0.00 0.00 92 1017.4
20260902051304 73 309 0.0 0.0 0.00 0.00 0.00 92 1017.4
20260902050303 74 309 0.0 0.0 0.00 0.00 0.00 91 1017.3
20260902044803 74 309 0.0 0.0 0.00 0.00 0.00 91 1017.3
20260902043804 74 309 0.0 0.0 0.00 0.00 0.00 91 1017.3
20260902043306 74 309 0.0 0.0 0.00 0.00 0.00 91 1017.4
20260902041303 74 309 0.0 0.0 0.00 0.00 0.00 91 1017.4
20260902040821 74 309 0.0 0.0 0.00 0.00 0.00 91 1017.4
20260902040304 74 309 0.0 0.0 0.00 0.00 0.00 90 1017.3
20260902034804 75 309 0.0 0.0 0.00 0.00 0.00 90 1017.3
20260902034303 75 309 0.0 0.0 0.00 0.00 0.00 90 1017.4
20260902031803 75 309 0.0 0.0 0.00 0.00 0.00 90 1017.3
20260902030804 75 309 0.0 0.0 0.00 0.00 0.00 89 1017.3
20260902024803 76 309 0.0 0.0 0.00 0.00 0.00 88 1017.4
20260902024304 76 309 0.0 0.0 0.00 0.00 0.00 88 1017.4
20260902023803 76 309 0.0 0.0 0.00 0.00 0.00 88 1017.4
20260902023303 76 309 0.0 0.0 0.00 0.00 0.00 88 1017.3
20260902021804 77 309 0.0 0.0 0.00 0.00 0.00 87 1017.2
20260902021303 77 309 0.0 0.0 0.00 0.00 0.00 87 1017.3
20260902020804 77 309 0.0 0.0 0.00 0.00 0.00 86 1017.2
20260902020305 77 309 0.0 0.0 0.00 0.00 0.00 87 1017.2
20260902014803 77 309 0.0 0.0 0.00 0.00 0.00 86 1017.1
20260902014304 78 309 0.0 0.0 0.00 0.00 0.00 85 1017.0
20260902013803 78 309 0.0 0.0 0.00 0.00 0.00 85 1016.9
20260902013303 78 309 0.0 0.0 0.00 0.00 0.00 85 1016.9
20260902011804 79 309 0.0 0.0 0.00 0.00 0.00 84 1016.7
20260902011303 79 309 0.0 0.0 0.00 0.00 0.00 83 1016.6
20260902010804 79 309 0.0 0.0 0.00 0.00 0.00 83 1016.5
20260902010304 79 309 0.0 0.0 0.00 0.00 0.00 82 1016.6
20260902004804 80 309 0.0 0.0 0.00 0.00 0.00 82 1016.4
20260902004303 80 309 0.0 0.0 0.00 0.00 0.00 81 1016.3
20260902003804 81 309 0.0 0.0 0.00 0.00 0.00 81 1016.3
20260902003304 81 309 0.0 0.0 0.00 0.00 0.00 79 1016.2
20260902001803 82 309 0.0 0.0 0.00 0.00 0.00 76 1016.2
20260902001303 82 309 0.0 0.0 0.00 0.00 0.00 76 1016.2
20260902000804 83 309 0.0 0.0 0.00 0.00 0.00 74 1016.2
20260902000304 83 309 0.0 0.0 0.00 0.00 0.00 73 1016.3
20260901234304 84 309 0.0 0.0 0.00 0.00 0.00 71 1016.4
20260901233804 85 309 0.0 0.0 0.00 0.00 0.00 69 1016.4
20260901233304 85 309 0.0 0.0 0.00 0.00 0.00 69 1016.4
20260901231804 86 309 0.0 0.0 0.00 0.00 0.00 66 1016.4
20260901231303 87 309 0.0 0.0 0.00 0.00 0.00 63 1016.3